View from above orbital plane
|
View from above satellite
|
Ground track
|
The orbit data is extracted from the following two-line orbital elements,
1 43678U 18084H 19347.78272875 .00000012 00000-0 68597-5 0 9992
2 43678 97.8672 101.4467 0011406 75.3304 284.9162 14.91592563 61190
Epoch (UTC): | 13 December 2019 18:47:07 |
Eccentricity: | 0.0011406 |
inclination: | 97.8672° |
perigee height: | 585 km |
apogee height: | 601 km |
right ascension of ascending node: | 101.4467° |
argument of perigee: | 75.3304° |
revolutions per day: | 14.91592563 |
mean anomaly at epoch: | 284.9162° |
orbit number at epoch: | 6119 |
The dashed part of the orbit path shows where the satellite is in the earth's shadow,
|
|